Terminal Aerodrome Forecast
Issued by NWS

Home | Current Version | Previous Version | Text Only | Print | Product List | Glossary On
Versions: 1 2 3 4 5 6 7 8 9 10 11 12 13 14 15 16 17 18 19 20 21 22 23 24 25 26 27 28 29 30 31 32 33 34 35 36 37 38 39 40 41 42 43 44 45
136
FTUS45 KSLC 290538
TAFOGD
TAF
KOGD 290538Z 2906/3006 07011KT P6SM BKN120
     FM291000 09011KT P6SM SCT070 BKN120
     FM291800 27006KT P6SM BKN070 BKN120
     FM300300 16006KT P6SM BKN120=

USA.gov is the U.S. government's official web portal to all federal, state and local government web resources and services.